Baku, Azerbaijan

1:50 PM +04 on May 26, 2018 (GMT +0400)
Bina

Weather History for UBBB - February, 2018

Change the Weather History Date:

Sunday, February 11, 2018

  Actual Average (WUND) Record (WUND)
Temperature  
Mean Temperature 42 °F -  
Max Temperature 49 °F - - (-1)
Min Temperature 35 °F - - (-1)
Degree Days  
Heating Degree Days 23    
Moisture  
Dew Point 37 °F    
Average Humidity 82    
Maximum Humidity 93    
Minimum Humidity 59    
Precipitation  
Precipitation 0.00 in - - ()
Sea Level Pressure  
Sea Level Pressure 30.07 in    
Wind  
Wind Speed 6 mph ()    
Max Wind Speed 16 mph    
Max Gust Speed -    
Visibility 6.2 miles    
Events      
Averages and records for this station are not official NWS values.
T = Trace of Precipitation, MM = Missing Value Source: Averaged Metar Reports

Daily Weather History Graph

Daily Weather History Graph

Search for Another Location

Airport or City:

Astronomy

Feb. 11, 2018 Rise Set
Actual Time 7:38 AM +04 6:09 PM +04
Civil Twilight 7:10 AM +04 6:37 PM +04
Nautical Twilight 6:38 AM +04 7:10 PM +04
Astronomical Twilight 6:06 AM +04 7:41 PM +04
Moon 4:22 AM +04 (2/11) 2:18 PM +04 (2/11)
Length of Visible Light 11h 27m
Length of Day
10h 31m
Waning Crescent, 18% of the Moon is Illuminated
Feb 11
Waning Crescent
Feb 16
New
Feb 23
First Quarter
Mar 2
Full
Mar 9
Last Quarter

Hourly Weather History & Observations

Time (+04) Temp. Windchill Dew Point Humidity Pressure Visibility Wind Dir Wind Speed Gust Speed Precip Events Conditions
12:00 AM 41.0 °F - 32.0 °F 70% 30.21 in 6.2 mi Calm Calm - N/A   Mostly Cloudy
12:30 AM 41.0 °F 38.0 °F 33.8 °F 76% 30.18 in 6.2 mi ENE 4.6 mph - N/A   Mostly Cloudy
1:00 AM 40 °F - 33 °F 68% 30.19 in 6 mi East 4.5 mph - -   Overcast
1:00 AM 41.0 °F 37.1 °F 33.8 °F 76% 30.18 in 6.2 mi East 5.8 mph - N/A   Mostly Cloudy
1:30 AM 41.0 °F 39.0 °F 33.8 °F 76% 30.18 in 6.2 mi East 3.5 mph - N/A   Mostly Cloudy
2:00 AM 41.0 °F - 32.0 °F 70% 30.18 in 6.2 mi East 1.2 mph - N/A   Mostly Cloudy
2:30 AM 37.4 °F - 32.0 °F 81% 30.18 in 6.2 mi SSE 2.3 mph - N/A   Scattered Clouds
3:00 AM 35.6 °F - 32.0 °F 87% 30.18 in 6.2 mi Variable 2.3 mph - N/A   Partly Cloudy
3:30 AM 35.6 °F - 33.8 °F 93% 30.15 in 6.2 mi Calm Calm - N/A   Partly Cloudy
4:00 AM 36 °F - 31 °F 76% 30.17 in 6 mi Calm Calm - -  
4:00 AM 33.8 °F - 32.0 °F 93% 30.15 in 6.2 mi East 2.3 mph - N/A   Partly Cloudy
4:30 AM 35.6 °F 31.7 °F 33.8 °F 93% 30.15 in 6.2 mi East 4.6 mph - N/A   Scattered Clouds
5:00 AM 37.4 °F 34.9 °F 33.8 °F 87% 30.15 in 6.2 mi SSW 3.5 mph - N/A   Mostly Cloudy
5:30 AM 37.4 °F - 35.6 °F 93% 30.15 in 6.2 mi Calm Calm - N/A   Mostly Cloudy
6:00 AM 37.4 °F - 35.6 °F 93% 30.15 in 6.2 mi Calm Calm - N/A   Mostly Cloudy
6:30 AM 37.4 °F - 35.6 °F 93% 30.15 in 6.2 mi SSE 2.3 mph - N/A   Mostly Cloudy
7:00 AM 38 °F - 34 °F 81% 30.15 in 6 mi Calm Calm - -  
7:00 AM 39.2 °F 37.0 °F 35.6 °F 87% 30.15 in 6.2 mi SSE 3.5 mph - N/A   Mostly Cloudy
7:30 AM 39.2 °F 35.0 °F 35.6 °F 87% 30.15 in 6.2 mi SSE 5.8 mph - N/A   Overcast
8:00 AM 39.2 °F 35.0 °F 35.6 °F 87% 30.15 in 6.2 mi SE 5.8 mph - N/A   Overcast
8:30 AM 39.2 °F 34.2 °F 35.6 °F 87% 30.15 in 6.2 mi SE 6.9 mph - N/A   Overcast
9:00 AM 41.0 °F 36.4 °F 35.6 °F 81% 30.15 in 6.2 mi SE 6.9 mph - N/A   Overcast
9:30 AM 41.0 °F 35.2 °F 35.6 °F 81% 30.12 in 6.2 mi SE 9.2 mph - N/A   Overcast
10:00 AM 42 °F - 35 °F 68% 30.13 in 6 mi ENE 6.7 mph - -   Overcast
10:00 AM 42.8 °F 38.6 °F 37.4 °F 81% 30.12 in 6.2 mi South 6.9 mph - N/A   Overcast
10:30 AM 42.8 °F 37.5 °F 35.6 °F 76% 30.12 in 6.2 mi SSE 9.2 mph - N/A   Overcast
11:00 AM 44.6 °F 39.7 °F 37.4 °F 76% 30.12 in 6.2 mi SSE 9.2 mph - N/A   Overcast
11:30 AM 44.6 °F 39.2 °F 37.4 °F 76% 30.09 in 6.2 mi SSE 10.4 mph - N/A   Overcast
12:00 PM 44.6 °F 39.7 °F 37.4 °F 76% 30.09 in 6.2 mi South 9.2 mph - N/A   Overcast
12:30 PM 46.4 °F 41.5 °F 37.4 °F 71% 30.09 in 6.2 mi South 10.4 mph - N/A   Overcast
1:00 PM 47 °F - 37 °F 59% 30.07 in 6 mi SE 8.9 mph - -   Mostly Cloudy
1:00 PM 46.4 °F 40.7 °F 39.2 °F 76% 30.06 in 6.2 mi South 12.7 mph - N/A   Mostly Cloudy
1:30 PM 46.4 °F 40.7 °F 39.2 °F 76% 30.04 in 6.2 mi South 12.7 mph - N/A   Mostly Cloudy
2:00 PM 48.2 °F - 41.0 °F 76% 30.04 in 6.2 mi SSE 13.8 mph - N/A   Mostly Cloudy
2:30 PM 46.4 °F 40.1 °F 39.2 °F 76% 30.04 in 6.2 mi South 15.0 mph - N/A   Mostly Cloudy
3:00 PM 46.4 °F 40.4 °F 39.2 °F 76% 30.01 in - South 13.8 mph - N/A   Clear
3:30 PM 46.4 °F 40.7 °F 39.2 °F 76% 30.01 in - South 12.7 mph - N/A   Clear
4:00 PM 47 °F - 39 °F 65% 30.01 in 6 mi SE 8.9 mph - -   Mostly Cloudy
4:00 PM 46.4 °F 40.7 °F 39.2 °F 76% 30.01 in - SSE 12.7 mph - N/A   Clear
4:30 PM 46.4 °F 39.8 °F 41.0 °F 81% 29.98 in 6.2 mi SSE 16.1 mph - N/A   Mostly Cloudy
5:00 PM 46.4 °F 40.7 °F 39.2 °F 76% 29.98 in - SSE 12.7 mph - N/A   Clear
5:30 PM 44.6 °F 38.4 °F 39.2 °F 81% 29.98 in - SE 12.7 mph - N/A   Clear
6:00 PM 44.6 °F 38.4 °F 39.2 °F 81% 29.98 in - SSE 12.7 mph - N/A   Clear
6:30 PM 42.8 °F 36.6 °F 39.2 °F 87% 29.98 in 6.2 mi SSE 11.5 mph - N/A   Scattered Clouds
7:00 PM 44 °F - 39 °F 76% 29.98 in 6 mi East 4.5 mph - -   Mostly Cloudy
7:00 PM 42.8 °F 36.6 °F 41.0 °F 93% 29.98 in 6.2 mi SE 11.5 mph - N/A   Mostly Cloudy
7:30 PM 42.8 °F 35.8 °F 41.0 °F 93% 29.95 in 6.2 mi SE 13.8 mph - N/A   Mostly Cloudy
8:00 PM 44.6 °F 39.2 °F 42.8 °F 93% 29.95 in 6.2 mi SSE 10.4 mph - N/A   Mostly Cloudy
8:30 PM 44.6 °F 38.1 °F 42.8 °F 93% 29.95 in 6.2 mi SSE 13.8 mph - N/A   Mostly Cloudy
9:00 PM 44.6 °F 39.2 °F 42.8 °F 93% 29.92 in 6.2 mi SSE 10.4 mph - N/A   Overcast
9:30 PM 44.6 °F 38.8 °F 42.8 °F 93% 29.92 in 6.2 mi SSE 11.5 mph - N/A   Overcast
10:00 PM 45 °F - 42 °F 86% 29.91 in 6 mi East 4.5 mph - -   Overcast
10:00 PM 46.4 °F 40.7 °F 42.8 °F 87% 29.92 in 6.2 mi SSE 12.7 mph - N/A   Overcast
10:30 PM 46.4 °F 40.7 °F 42.8 °F 87% 29.89 in 6.2 mi South 12.7 mph - N/A   Overcast
11:00 PM 46.4 °F 41.1 °F 42.8 °F 87% 29.86 in 6.2 mi SSE 11.5 mph - N/A   Mostly Cloudy
11:30 PM 44.6 °F 39.2 °F 42.8 °F 93% 29.86 in 6.2 mi SSE 10.4 mph - N/A   Mostly Cloudy